CW3643 Weather Reports


time (UTC)temp
C
wind
direction
speed
KPH
gust
KPH
rain 1hr
cm
rain 24hr
cm
rain mn
cm
humidity
%
barometer
mb
20260906163035 30 328 16.1 27.4 0.00 0.00 0.00 46 1020.3
20260906162534 30 338 11.3 22.5 0.00 0.00 0.00 46 1020.2
20260906162014 30 318 9.7 27.4 0.00 0.00 0.00 46 1020.2
20260906161529 30 302 19.3 25.7 0.00 0.00 0.00 46 1020.2
20260906160524 30 332 11.3 27.4 0.00 0.00 0.00 50 1020.1
20260906160013 30 315 19.3 24.1 0.00 0.00 0.00 50 1020.2
20260906155514 31 343 14.5 24.1 0.00 0.00 0.00 50 1020.1
20260906155022 31 341 17.7 24.1 0.00 0.00 0.00 50 1020.1
20260906154529 31 347 14.5 24.1 0.00 0.00 0.00 48 1020.0
20260906154016 31 306 12.9 24.1 0.00 0.00 0.00 47 1019.9
20260906153517 31 335 12.9 22.5 0.00 0.00 0.00 47 1019.9
20260906153044 31 190 4.8 22.5 0.00 0.00 0.00 46 1020.0
20260906152547 31 334 9.7 19.3 0.00 0.00 0.00 46 1020.0
20260906152034 31 190 11.3 24.1 0.00 0.00 0.00 45 1020.1
20260906151514 31 343 11.3 24.1 0.00 0.00 0.00 47 1020.1
20260906150517 31 12 6.4 22.5 0.00 0.00 0.00 47 1020.2
20260906150024 31 190 9.7 22.5 0.00 0.00 0.00 47 1020.2
20260906145511 31 190 14.5 22.5 0.00 0.00 0.00 48 1020.2
20260906145025 31 353 12.9 24.1 0.00 0.00 0.00 47 1020.3
20260906144533 31 315 12.9 24.1 0.00 0.00 0.00 47 1020.4
20260906144014 31 5 9.7 17.7 0.00 0.00 0.00 47 1020.3
20260906143538 31 276 8.0 20.9 0.00 0.00 0.00 47 1020.4
20260906143025 31 190 14.5 22.5 0.00 0.00 0.00 48 1020.4
20260906142525 31 29 11.3 22.5 0.00 0.00 0.00 48 1020.5
20260906142013 31 190 6.4 19.3 0.00 0.00 0.00 48 1020.5
20260906141528 31 353 11.3 19.3 0.00 0.00 0.00 48 1020.5
20260906141034 31 11 4.8 24.1 0.00 0.00 0.00 48 1020.5
20260906140517 31 190 12.9 24.1 0.00 0.00 0.00 48 1020.5
20260906140024 31 286 12.9 19.3 0.00 0.00 0.00 46 1020.5
20260906135552 31 343 6.4 14.5 0.00 0.00 0.00 47 1020.5
20260906135012 31 323 8.0 17.7 0.00 0.00 0.00 47 1020.5
20260906134520 31 318 4.8 17.7 0.00 0.00 0.00 49 1020.5
20260906134048 31 328 8.0 22.5 0.00 0.00 0.00 48 1020.6
20260906133531 31 357 11.3 22.5 0.00 0.00 0.00 48 1020.6
20260906133012 31 321 8.0 16.1 0.00 0.00 0.00 47 1020.6
20260906132517 31 359 11.3 17.7 0.00 0.00 0.00 47 1020.6
20260906132018 31 297 6.4 14.5 0.00 0.00 0.00 48 1020.6
20260906131526 31 343 4.8 19.3 0.00 0.00 0.00 48 1020.6
20260906131013 30 334 6.4 19.3 0.00 0.00 0.00 49 1020.6
20260906130522 30 296 6.4 16.1 0.00 0.00 0.00 49 1020.6
20260906130057 30 190 8.0 14.5 0.00 0.00 0.00 49 1020.6
20260906125537 30 16 6.4 14.5 0.00 0.00 0.00 50 1020.5
20260906125017 30 16 8.0 16.1 0.00 0.00 0.00 51 1020.5
20260906124043 30 190 8.0 17.7 0.00 0.00 0.00 52 1020.4
20260906123530 30 190 8.0 17.7 0.00 0.00 0.00 52 1020.6
20260906123011 30 190 8.0 14.5 0.00 0.00 0.00 53 1020.6
20260906122518 30 349 4.8 14.5 0.00 0.00 0.00 53 1020.6
20260906122025 30 309 8.0 14.5 0.00 0.00 0.00 53 1020.7
20260906121535 30 289 4.8 16.1 0.00 0.00 0.00 54 1020.7
20260906121014 29 3 9.7 16.1 0.00 0.00 0.00 54 1020.7
20260906120523 29 49 3.2 8.0 0.00 0.00 0.00 56 1020.7
20260906120030 29 106 3.2 8.0 0.00 0.00 0.00 58 1020.8
20260906115030 28 199 3.2 9.7 0.00 0.00 0.00 58 1020.9
20260906114027 28 115 3.2 8.0 0.00 0.00 0.00 58 1020.9
20260906113534 28 105 1.6 11.3 0.00 0.00 0.00 59 1020.9
20260906113019 28 118 4.8 11.3 0.00 0.00 0.00 59 1021.0
20260906112520 28 92 4.8 11.3 0.00 0.00 0.00 59 1021.0
20260906112027 28 52 4.8 0.0 0.00 0.00 0.00 60 1020.9
20260906111512 28 28 4.8 9.7 0.00 0.00 0.00 60 1021.2
20260906111026 28 122 4.8 9.7 0.00 0.00 0.00 60 1021.1
20260906110522 28 167 1.6 8.0 0.00 0.00 0.00 60 1021.2
20260906110023 27 101 3.2 8.0 0.00 0.00 0.00 60 1021.2
20260906105524 27 109 4.8 8.0 0.00 0.00 0.00 60 1021.2
20260906105012 27 357 1.6 6.4 0.00 0.00 0.00 60 1021.2
20260906104516 27 109 0.0 6.4 0.00 0.00 0.00 59 1021.3
20260906104016 27 110 1.6 9.7 0.00 0.00 0.00 60 1021.3
20260906102542 27 190 4.8 12.9 0.00 0.00 0.00 62 1021.3
20260906102028 27 355 4.8 12.9 0.00 0.00 0.00 63 1021.3
20260906101536 27 342 3.2 16.1 0.00 0.00 0.00 63 1021.3
20260906101022 27 336 8.0 16.1 0.00 0.00 0.00 62 1021.3
20260906100511 27 302 4.8 9.7 0.00 0.00 0.00 61 1021.3
20260906095519 26 331 3.2 9.7 0.00 0.00 0.00 60 1021.1
20260906095029 26 360 1.6 4.8 0.00 0.00 0.00 61 1021.1
20260906094536 26 50 1.6 6.4 0.00 0.00 0.00 61 1021.1
20260906094024 26 47 3.2 6.4 0.00 0.00 0.00 61 1021.1
20260906093512 26 70 1.6 6.4 0.00 0.00 0.00 62 1021.1
20260906093013 26 70 1.6 6.4 0.00 0.00 0.00 62 1021.0
20260906092513 26 100 3.2 8.0 0.00 0.00 0.00 62 1020.9
20260906092017 25 52 3.2 8.0 0.00 0.00 0.00 62 1020.9
20260906091524 25 246 0.0 6.4 0.00 0.00 0.00 63 1020.8
20260906091009 25 74 3.2 6.4 0.00 0.00 0.00 64 1020.8
20260906090518 25 48 1.6 6.4 0.00 0.00 0.00 65 1020.7
20260906085523 24 64 3.2 8.0 0.00 0.00 0.00 66 1020.6
20260906085031 24 70 1.6 6.4 0.00 0.00 0.00 67 1020.6
20260906084518 24 4 1.6 3.2 0.00 0.00 0.00 68 1020.5
20260906084034 23 348 0.0 4.8 0.00 0.00 0.00 69 1020.5
20260906083023 23 324 1.6 4.8 0.00 0.00 0.00 71 1020.6
20260906082531 23 324 1.6 9.7 0.00 0.00 0.00 71 1020.5
20260906082039 22 332 6.4 9.7 0.00 0.00 0.00 72 1020.6
20260906081526 22 350 3.2 8.0 0.00 0.00 0.00 73 1020.6
20260906081012 22 323 1.6 8.0 0.00 0.00 0.00 74 1020.6
20260906080550 22 346 4.8 8.0 0.00 0.00 0.00 75 1020.6
20260906080032 22 2 3.2 6.4 0.00 0.00 0.00 76 1020.6
20260906075534 21 313 0.0 4.8 0.00 0.00 0.00 78 1020.5
20260906075013 21 313 1.6 6.4 0.00 0.00 0.00 78 1020.5
20260906074547 21 190 3.2 6.4 0.00 0.00 0.00 78 1020.5
20260906073536 21 190 1.6 8.0 0.00 0.00 0.00 79 1020.4
20260906073020 21 190 3.2 9.7 0.00 0.00 0.00 80 1020.4
20260906072521 20 190 6.4 9.7 0.00 0.00 0.00 80 1020.4
20260906072029 20 190 6.4 11.3 0.00 0.00 0.00 80 1020.4
20260906071551 20 190 4.8 11.3 0.00 0.00 0.00 81 1020.3
20260906071038 20 326 8.0 9.7 0.00 0.00 0.00 81 1020.3
20260906070524 20 322 6.4 9.7 0.00 0.00 0.00 81 1020.2
20260906070031 20 307 6.4 11.3 0.00 0.00 0.00 81 1020.1
20260906065510 20 326 8.0 11.3 0.00 0.00 0.00 81 1020.0
20260906065038 20 334 4.8 8.0 0.00 0.00 0.00 81 1019.9
20260906064525 20 316 3.2 4.8 0.00 0.00 0.00 81 1019.9
20260906064012 20 0.0 0.0 0.00 0.00 0.00 81 1019.9
20260906063512 20 0.0 0.0 0.00 0.00 0.00 81 1019.8
20260906063019 20 0.0 0.0 0.00 0.00 0.00 81 1019.8
20260906062518 20 0.0 0.0 0.00 0.00 0.00 81 1019.8
20260906062021 20 0.0 0.0 0.00 0.00 0.00 80 1019.8
20260906061529 20 0.0 0.0 0.00 0.00 0.00 80 1019.7
20260906061034 20 0.0 0.0 0.00 0.00 0.00 80 1019.6
20260906060515 20 0.0 0.0 0.00 0.00 0.00 80 1019.5
20260906060042 20 0.0 0.0 0.00 0.00 0.00 79 1019.4
20260906055528 20 0.0 0.0 0.00 0.00 0.00 79 1019.4
20260906055015 20 0.0 0.0 0.00 0.00 0.00 79 1019.3
20260906054515 20 0.0 0.0 0.00 0.00 0.00 79 1019.3
20260906054021 21 0.0 0.0 0.00 0.00 0.00 78 1019.3
20260906052535 21 0.0 0.0 0.00 0.00 0.00 77 1019.3
20260906052016 21 0.0 0.0 0.00 0.00 0.00 77 1019.3
20260906051524 21 0.0 0.0 0.00 0.00 0.00 76 1019.4
20260906051107 21 0.0 0.0 0.00 0.00 0.00 75 1019.3
20260906050527 21 0.0 0.0 0.00 0.00 0.00 75 1019.3
20260906050034 21 0.0 0.0 0.00 0.00 0.00 74 1019.3
20260906045514 21 0.0 0.0 0.00 0.00 0.00 73 1019.2
20260906045021 21 0.0 0.0 0.00 0.00 0.00 73 1019.2
20260906044530 21 0.0 0.0 0.00 0.00 0.00 72 1019.2
20260906044011 22 0.0 0.0 0.00 0.00 0.00 71 1019.2
20260906043519 22 0.0 0.0 0.00 0.00 0.00 71 1019.2
20260906043025 22 0.0 0.0 0.00 0.00 0.00 70 1019.2
20260906042522 22 0.0 0.0 0.00 0.00 0.00 69 1019.1
20260906042110 22 0.0 0.0 0.00 0.00 0.00 69 1019.1
20260906041512 22 0.0 0.0 0.00 0.00 0.00 68 1019.1
20260906041020 22 0.0 0.0 0.00 0.00 0.00 68 1019.1
20260906040530 22 0.0 0.0 0.00 0.00 0.00 68 1019.1
20260906040029 22 0.0 0.0 0.00 0.00 0.00 67 1019.1
20260906035529 22 0.0 0.0 0.00 0.00 0.00 66 1019.1
20260906035015 22 0.0 0.0 0.00 0.00 0.00 66 1019.1
20260906034044 22 0.0 0.0 0.00 0.00 0.00 65 1019.1
20260906033530 22 0.0 0.0 0.00 0.00 0.00 64 1019.2
20260906033018 22 0.0 0.0 0.00 0.00 0.00 63 1019.1
20260906032518 22 0.0 0.0 0.00 0.00 0.00 63 1019.1
20260906032025 23 0.0 0.0 0.00 0.00 0.00 62 1019.1
20260906031522 23 0.0 0.0 0.00 0.00 0.00 62 1019.1
20260906031048 23 0.0 0.0 0.00 0.00 0.00 61 1019.0
20260906030536 23 0.0 0.0 0.00 0.00 0.00 60 1019.1
20260906030023 23 0.0 0.0 0.00 0.00 0.00 60 1019.1
20260906025524 23 0.0 526.3 0.00 0.00 0.00 59 1019.0
20260906025029 23 0.0 0.0 0.00 0.00 0.00 59 1019.1
20260906024518 23 0.0 0.0 0.00 0.00 0.00 58 1019.1
20260906024018 23 0.0 0.0 0.00 0.00 0.00 59 1019.1
20260906023526 23 0.0 0.0 0.00 0.00 0.00 59 1019.1
20260906023034 23 0.0 0.0 0.00 0.00 0.00 60 1019.0
20260906022514 23 0.0 0.0 0.00 0.00 0.00 61 1019.1
20260906022025 23 0.0 0.0 0.00 0.00 0.00 60 1019.1
20260906021526 23 0.0 0.0 0.00 0.00 0.00 60 1019.1
20260906021009 23 0.0 0.0 0.00 0.00 0.00 60 1019.1
20260906020517 23 0.0 0.0 0.00 0.00 0.00 60 1019.1
20260906020025 23 0.0 0.0 0.00 0.00 0.00 60 1019.0
20260906015526 23 0.0 0.0 0.00 0.00 0.00 60 1019.1
20260906015031 23 0.0 0.0 0.00 0.00 0.00 60 1019.1
20260906014539 23 0.0 0.0 0.00 0.00 0.00 61 1019.2
20260906014019 23 0.0 0.0 0.00 0.00 0.00 61 1019.2
20260906013547 23 0.0 0.0 0.00 0.00 0.00 61 1019.2
20260906013014 23 0.0 0.0 0.00 0.00 0.00 61 1019.2
20260906012536 23 0.0 0.0 0.00 0.00 0.00 61 1019.2
20260906011513 23 0.0 0.0 0.00 0.00 0.00 61 1019.4
20260906011020 23 0.0 0.0 0.00 0.00 0.00 60 1019.4
20260906010529 23 0.0 0.0 0.00 0.00 0.00 60 1019.3
20260906010034 23 0.0 0.0 0.00 0.00 0.00 60 1019.6
20260906005541 23 0.0 0.0 0.00 0.00 0.00 59 1019.5
20260906005027 23 0.0 0.0 0.00 0.00 0.00 59 1019.6
20260906004517 23 0.0 0.0 0.00 0.00 0.00 59 1019.7
20260906004024 24 0.0 0.0 0.00 0.00 0.00 59 1019.7
20260906003525 24 0.0 0.0 0.00 0.00 0.00 58 1019.7
20260906003010 24 0.0 0.0 0.00 0.00 0.00 58 1019.7
20260906002538 24 0.0 0.0 0.00 0.00 0.00 59 1019.8
20260906002024 24 0.0 0.0 0.00 0.00 0.00 58 1019.7
20260906001518 24 0.0 0.0 0.00 0.00 0.00 59 1019.7
20260906001025 24 0.0 0.0 0.00 0.00 0.00 59 1019.8
20260906000534 24 0.0 0.0 0.00 0.00 0.00 60 1019.8
20260906000015 24 0.0 0.0 0.00 0.00 0.00 61 1019.9
20260905235012 24 0.0 0.0 0.00 0.00 0.00 62 1019.9
20260905234547 24 0.0 0.0 0.00 0.00 0.00 62 1019.9
20260905234027 24 0.0 0.0 0.00 0.00 0.00 63 1019.9
20260905233521 24 0.0 0.0 0.00 0.00 0.00 63 1019.8
20260905233029 24 0.0 0.0 0.00 0.00 0.00 63 1019.7
20260905232530 24 0.0 0.0 0.00 0.00 0.00 64 1019.7
20260905232038 24 0.0 0.0 0.00 0.00 0.00 64 1019.7
20260905231517 24 0.0 0.0 0.00 0.00 0.00 64 1019.7
20260905231043 24 0.0 0.0 0.00 0.00 0.00 64 1019.7
20260905230511 24 0.0 0.0 0.00 0.00 0.00 64 1019.6
20260905230019 24 0.0 0.0 0.00 0.00 0.00 64 1019.6
20260905225516 24 0.0 0.0 0.00 0.00 0.00 64 1019.6
20260905225023 24 0.0 0.0 0.00 0.00 0.00 64 1019.5
20260905224552 24 0.0 0.0 0.00 0.00 0.00 65 1019.5
20260905224011 24 0.0 0.0 0.00 0.00 0.00 65 1019.5
20260905223519 24 0.0 0.0 0.00 0.00 0.00 66 1019.5
20260905223028 24 0.0 0.0 0.00 0.00 0.00 66 1019.5
20260905222535 25 0.0 0.0 0.00 0.00 0.00 66 1019.5
20260905222016 25 0.0 0.0 0.00 0.00 0.00 66 1019.5
20260905221544 25 0.0 0.0 0.00 0.00 0.00 66 1019.4
20260905221030 25 0.0 0.0 0.00 0.00 0.00 66 1019.5
20260905220534 25 0.0 0.0 0.00 0.00 0.00 66 1019.4
20260905215530 25 0.0 0.0 0.00 0.00 0.00 65 1019.3
20260905215011 25 0.0 0.0 0.00 0.00 0.00 64 1019.3
20260905214519 25 0.0 0.0 0.00 0.00 0.00 64 1019.3
20260905214026 25 0.0 0.0 0.00 0.00 0.00 63 1019.3
20260905213534 25 0.0 0.0 0.00 0.00 0.00 63 1019.3
20260905213042 25 0.0 0.0 0.00 0.00 0.00 62 1019.3
20260905212522 26 0.0 0.0 0.00 0.00 0.00 61 1019.2
20260905212030 26 0.0 0.0 0.00 0.00 0.00 60 1019.2
20260905211530 26 0.0 0.0 0.00 0.00 0.00 60 1019.1
20260905211119 26 0.0 0.0 0.00 0.00 0.00 60 1019.1
20260905210033 26 0.0 0.0 0.00 0.00 0.00 61 1019.0
20260905205532 26 0.0 0.0 0.00 0.00 0.00 61 1019.1
20260905205019 26 0.0 0.0 0.00 0.00 0.00 60 1019.0
20260905204546 26 0.0 0.0 0.00 0.00 0.00 59 1018.9
20260905204011 26 0.0 0.0 0.00 0.00 0.00 58 1018.8
20260905203518 26 0.0 0.0 0.00 0.00 0.00 58 1018.7
20260905202528 26 0.0 0.0 0.00 0.00 0.00 57 1018.7
20260905202050 26 0.0 0.0 0.00 0.00 0.00 57 1018.6
20260905201514 27 0.0 0.0 0.00 0.00 0.00 57 1018.5
20260905201014 27 0.0 0.0 0.00 0.00 0.00 56 1018.5
20260905200521 27 0.0 0.0 0.00 0.00 0.00 56 1018.5
20260905200054 27 0.0 0.0 0.00 0.00 0.00 55 1018.4
20260905195529 27 0.0 0.0 0.00 0.00 0.00 55 1018.4
20260905194027 28 263 8.0 11.3 0.00 0.00 0.00 54 1018.1
20260905193551 28 190 8.0 11.3 0.00 0.00 0.00 53 1018.0
20260905193018 28 190 6.4 14.5 0.00 0.00 0.00 53 1018.0
20260905192525 28 190 11.3 16.1 0.00 0.00 0.00 53 1017.9
20260905191542 29 278 8.0 16.1 0.00 0.00 0.00 52 1017.7
20260905191028 29 270 8.0 16.1 0.00 0.00 0.00 52 1017.7
20260905190516 29 277 4.8 12.9 0.00 0.00 0.00 52 1017.7
20260905185539 30 295 9.7 12.9 0.00 0.00 0.00 50 1017.6
20260905185053 30 311 8.0 12.9 0.00 0.00 0.00 49 1017.5
20260905184514 30 281 4.8 12.9 0.00 0.00 0.00 46 1017.5
20260905184038 30 226 6.4 17.7 0.00 0.00 0.00 43 1017.5
20260905183525 30 228 9.7 19.3 0.00 0.00 0.00 40 1017.5
20260905183013 30 242 9.7 19.3 0.00 0.00 0.00 39 1017.4
20260905182514 31 243 8.0 22.5 0.00 0.00 0.00 39 1017.4
20260905182022 31 255 14.5 27.4 0.00 0.00 0.00 38 1017.4
20260905181550 31 261 17.7 27.4 0.00 0.00 0.00 38 1017.4
20260905181013 31 258 16.1 22.5 0.00 0.00 0.00 38 1017.3
20260905180521 31 268 16.1 24.1 0.00 0.00 0.00 38 1017.3
20260905180023 31 226 19.3 24.1 0.00 0.00 0.00 38 1017.3
20260905175524 31 272 16.1 25.7 0.00 0.00 0.00 38 1017.3
20260905175011 31 245 12.9 22.5 0.00 0.00 0.00 38 1017.4
20260905174547 31 190 14.5 29.0 0.00 0.00 0.00 38 1017.4
20260905174030 31 244 12.9 30.6 0.00 0.00 0.00 38 1017.3
20260905173537 31 257 22.5 30.6 0.00 0.00 0.00 38 1017.3
20260905173045 31 266 14.5 33.8 0.00 0.00 0.00 38 1017.3
20260905172525 31 251 17.7 33.8 0.00 0.00 0.00 38 1017.4
20260905172034 31 279 19.3 29.0 0.00 0.00 0.00 37 1017.4
20260905171514 32 190 20.9 29.0 0.00 0.00 0.00 37 1017.3
20260905171041 33 266 19.3 25.7 0.00 0.00 0.00 35 1017.2
20260905170529 33 248 8.0 19.3 0.00 0.00 0.00 36 1017.2
20260905170011 35 266 12.9 19.3 0.00 0.00 0.00 35 1017.0
20260905165520 35 145 3.2 22.5 0.00 0.00 0.00 33 1017.0
20260905165020 35 283 16.1 22.5 0.00 0.00 0.00 31 1016.9
20260905164524 35 258 14.5 20.9 0.00 0.00 0.00 32 1016.8
20260905164017 35 220 14.5 20.9 0.00 0.00 0.00 32 1016.8
20260905163551 35 255 11.3 22.5 0.00 0.00 0.00 32 1016.9